Weather History for Crookston, MN

Change the Weather History Date:

Monday, September 9, 2013

  Actual Average Record
Temperature  
Mean Temperature 65 °F -  
Max Temperature 68 °F 70 °F 87 °F (2000)
Min Temperature 62 °F 48 °F 35 °F (2007)
Growing Degree Days 15 (Base 50)    
Moisture  
Dew Point 64 °F    
Average Humidity 97    
Maximum Humidity 100    
Minimum Humidity 88    
Precipitation  
Precipitation 0.31 in - - ()
Sea Level Pressure  
Sea Level Pressure 29.72 in    
Wind  
Wind Speed 7 mph (NNW)    
Max Wind Speed 16 mph    
Max Gust Speed 20 mph    
Visibility 7 miles    
Events Rain , Thunderstorm    
Averages and records for this station are not official NWS values.
T = Trace of Precipitation, MM = Missing Value Source: NWS Daily Summary

Daily Weather History Graph

Daily Weather History Graph

Search for Another Location

Airport:

Trip Planner

Search our weather history database for the weather conditions in past years. The results will help you decide how hot, cold, wet, or windy it might be!

Date:

Astronomy

Sep. 09, 2013 Rise Set
Actual Time 6:55 AM CDT 7:50 PM CDT
Civil Twilight 6:24 AM CDT 8:21 PM CDT
Nautical Twilight 5:46 AM CDT 8:59 PM CDT
Astronomical Twilight 5:06 AM CDT 9:38 PM CDT
Moon 11:41 AM CDT (9/9) 9:43 PM CDT (9/9)
Length of Visible Light 13h 57m
Length of Day
12h 54m
Waxing Crescent, 19% of the Moon is Illuminated
Sep 9
Waxing Crescent
Sep 12
First Quarter
Sep 19
Full
Sep 26
Last Quarter
Oct 4
New

Hourly Weather History & Observations

Time (CDT) Temp. Dew Point Humidity Pressure Visibility Wind Dir Wind Speed Gust Speed Precip Events Conditions
12:14 AM 64.4 °F 62.6 °F 94% 29.84 in 5.0 mi SSE 8.1 mph - N/A   Overcast
12:35 AM 62.6 °F 62.6 °F 100% 29.84 in 3.0 mi SSE 9.2 mph - N/A   Overcast
12:54 AM 62.6 °F 62.6 °F 100% 29.84 in 2.0 mi SSE 10.4 mph - N/A   Overcast
1:15 AM 62.6 °F 62.6 °F 100% 29.84 in 1.8 mi South 8.1 mph - N/A   Overcast
1:34 AM 62.6 °F 62.6 °F 100% 29.84 in 2.0 mi South 9.2 mph - N/A   Overcast
1:55 AM 62.6 °F 62.6 °F 100% 29.84 in 5.0 mi South 9.2 mph - N/A   Overcast
2:14 AM 62.6 °F 60.8 °F 94% 29.82 in 5.0 mi SSE 9.2 mph - N/A   Overcast
2:34 AM 62.6 °F 62.6 °F 100% 29.80 in 5.0 mi SE 5.8 mph - N/A   Overcast
2:55 AM 62.6 °F 62.6 °F 100% 29.79 in 5.0 mi SE 3.5 mph - N/A   Overcast
3:14 AM 62.6 °F 62.6 °F 100% 29.75 in 5.0 mi ESE 5.8 mph - N/A   Overcast
3:34 AM 62.6 °F 62.6 °F 100% 29.77 in 5.0 mi SE 6.9 mph - N/A Rain Light Rain
3:55 AM 62.6 °F 62.6 °F 100% 29.76 in 2.5 mi ESE 6.9 mph - N/A   Overcast
4:14 AM 62.6 °F 62.6 °F 100% 29.78 in 5.0 mi SE 6.9 mph - N/A   Overcast
4:35 AM 62.6 °F 60.8 °F 94% 29.76 in 7.0 mi ESE 6.9 mph - N/A   Overcast
4:55 AM 62.6 °F 60.8 °F 94% 29.77 in 7.0 mi ESE 6.9 mph - N/A Thunderstorm Overcast
5:14 AM 62.6 °F 60.8 °F 94% 29.79 in 7.0 mi SE 5.8 mph - N/A Rain Rain
5:35 AM 62.6 °F 60.8 °F 94% 29.79 in 7.0 mi SE 6.9 mph - 0.04 in Rain Heavy Rain
5:55 AM 62.6 °F 60.8 °F 94% 29.74 in 7.0 mi East 10.4 mph - 0.01 in Rain , Thunderstorm Thunderstorms and Rain
6:14 AM 62.6 °F 60.8 °F 94% 29.69 in 7.0 mi East 12.7 mph 17.3 mph 0.04 in Rain , Thunderstorm Rain
6:35 AM 62.6 °F 60.8 °F 94% 29.69 in 7.0 mi ESE 11.5 mph - 0.08 in Rain Rain
6:55 AM 62.6 °F 62.6 °F 100% 29.67 in 10.0 mi ESE 11.5 mph - 0.01 in Rain Light Rain
7:14 AM 62.6 °F 62.6 °F 100% 29.65 in 7.0 mi SE 10.4 mph - 0.05 in Rain Heavy Rain
7:35 AM 64.4 °F 62.6 °F 94% 29.62 in 10.0 mi ESE 8.1 mph - 0.12 in Rain Light Rain
7:54 AM 64.4 °F 62.6 °F 94% 29.62 in 7.0 mi SE 6.9 mph - 0.01 in Rain Light Rain
8:14 AM 64.4 °F 62.6 °F 94% 29.65 in 7.0 mi South 5.8 mph - N/A Rain Light Rain
8:35 AM 64.4 °F 64.4 °F 100% 29.66 in 10.0 mi North - - 0.03 in Rain Rain
8:54 AM 64.4 °F 64.4 °F 100% 29.67 in 7.0 mi West 4.6 mph - N/A   Overcast
9:14 AM 64.4 °F 64.4 °F 100% 29.68 in 10.0 mi West 6.9 mph - N/A   Overcast
9:35 AM 64.4 °F 64.4 °F 100% 29.68 in 4.0 mi West 5.8 mph - N/A   Light Drizzle
9:54 AM 64.4 °F 64.4 °F 100% 29.69 in 4.0 mi West 5.8 mph - N/A   Drizzle
10:14 AM 64.4 °F 64.4 °F 100% 29.69 in 3.0 mi Calm Calm - N/A   Light Drizzle
10:35 AM 64.4 °F 64.4 °F 100% 29.70 in 2.0 mi Calm Calm - N/A   Drizzle
10:54 AM 66.2 °F 64.4 °F 94% 29.69 in 2.0 mi Calm Calm - N/A   Drizzle
11:15 AM 66.2 °F 64.4 °F 94% 29.68 in 5.0 mi WSW 3.5 mph - N/A   Light Drizzle
11:34 AM 66.2 °F 66.2 °F 100% 29.68 in 10.0 mi SW 3.5 mph - N/A   Overcast
11:54 AM 66.2 °F 66.2 °F 100% 29.68 in 4.0 mi Calm Calm - N/A Rain Heavy Rain
12:15 PM 66.2 °F 66.2 °F 100% 29.68 in 1.5 mi Calm Calm - 0.02 in   Heavy Drizzle
12:34 PM 66.2 °F 66.2 °F 100% 29.68 in 2.0 mi Calm Calm - 0.03 in   Drizzle
12:54 PM 66.2 °F 66.2 °F 100% 29.67 in 3.0 mi Calm Calm - N/A   Light Drizzle
1:15 PM 66.2 °F 66.2 °F 100% 29.67 in 2.5 mi Calm Calm - N/A   Drizzle
1:34 PM 66.2 °F 66.2 °F 100% 29.67 in 2.5 mi Calm Calm - N/A   Drizzle
1:54 PM 66.2 °F 66.2 °F 100% 29.67 in 7.0 mi NNW 3.5 mph - N/A   Overcast
2:15 PM 66.2 °F 66.2 °F 100% 29.67 in 7.0 mi NNW 4.6 mph - N/A   Overcast
2:34 PM 66.2 °F 66.2 °F 100% 29.67 in 2.0 mi NNW 3.5 mph - N/A   Drizzle
2:54 PM 66.2 °F 66.2 °F 100% 29.67 in 3.0 mi Calm Calm - N/A   Light Drizzle
3:15 PM 66.2 °F 66.2 °F 100% 29.67 in 4.0 mi NNW 4.6 mph - 0.01 in   Light Drizzle
3:34 PM 66.2 °F 66.2 °F 100% 29.67 in 2.0 mi North 8.1 mph - 0.01 in   Drizzle
3:54 PM 66.2 °F 66.2 °F 100% 29.67 in 10.0 mi North 4.6 mph - N/A   Overcast
4:15 PM 66.2 °F 66.2 °F 100% 29.67 in 10.0 mi North 6.9 mph - N/A Rain Light Rain
4:34 PM 66.2 °F 66.2 °F 100% 29.68 in 4.0 mi North 10.4 mph - N/A   Light Drizzle
4:55 PM 66.2 °F 66.2 °F 100% 29.68 in 10.0 mi North 9.2 mph - N/A   Overcast
5:15 PM 66.2 °F 66.2 °F 100% 29.68 in 10.0 mi North 10.4 mph - N/A   Overcast
5:34 PM 66.2 °F 66.2 °F 100% 29.68 in 10.0 mi North 8.1 mph - N/A   Overcast
5:55 PM 68.0 °F 66.2 °F 94% 29.69 in 10.0 mi North 8.1 mph - N/A   Mostly Cloudy
6:14 PM 68.0 °F 66.2 °F 94% 29.70 in 10.0 mi NNW 10.4 mph - N/A   Overcast
6:34 PM 68.0 °F 64.4 °F 88% 29.71 in 10.0 mi NNW 10.4 mph - N/A   Overcast
6:55 PM 68.0 °F 64.4 °F 88% 29.71 in 10.0 mi NNW 16.1 mph 19.6 mph N/A   Overcast
7:14 PM 66.2 °F 64.4 °F 94% 29.72 in 10.0 mi NNW 9.2 mph - N/A   Overcast
7:34 PM 66.2 °F 64.4 °F 94% 29.73 in 10.0 mi NNW 12.7 mph - N/A   Overcast
7:55 PM 66.2 °F 64.4 °F 94% 29.74 in 10.0 mi NNW 10.4 mph - N/A   Overcast
8:14 PM 66.2 °F 64.4 °F 94% 29.74 in 10.0 mi NNW 9.2 mph - N/A   Overcast
8:34 PM 66.2 °F 62.6 °F 88% 29.75 in 10.0 mi NNW 9.2 mph - N/A   Overcast
8:55 PM 66.2 °F 62.6 °F 88% 29.75 in 10.0 mi NNW 6.9 mph - N/A   Overcast
9:14 PM 66.2 °F 64.4 °F 94% 29.76 in 10.0 mi NNW 6.9 mph - N/A   Overcast
9:34 PM 64.4 °F 64.4 °F 100% 29.77 in 10.0 mi NW 6.9 mph - N/A   Overcast
9:55 PM 64.4 °F 62.6 °F 94% 29.77 in 10.0 mi NW 10.4 mph - N/A   Overcast
10:14 PM 64.4 °F 62.6 °F 94% 29.78 in 10.0 mi NW 9.2 mph - N/A   Overcast
10:35 PM 64.4 °F 62.6 °F 94% 29.78 in 10.0 mi NW 6.9 mph - N/A   Overcast
10:55 PM 64.4 °F 62.6 °F 94% 29.78 in 10.0 mi NW 5.8 mph - N/A   Overcast
11:14 PM 64.4 °F 62.6 °F 94% 29.78 in 10.0 mi WNW 6.9 mph - N/A   Overcast
11:35 PM 64.4 °F 62.6 °F 94% 29.79 in 10.0 mi WNW 6.9 mph - N/A   Overcast
11:55 PM 64.4 °F 62.6 °F 94% 29.80 in 10.0 mi WNW 9.2 mph - N/A   Overcast